Weather in Startsevo

Russia / Oryol Oblast     53°00′11″N   36°09′26″E
temp.,
°C
wind,
m/s
gust,
m/s
humid.,
%
clouds,
%
prec.,
mm/h
press.,
hPa
HPBL,
m
12 may, wed
wed1200:00+7ese39870 0.0 1025170
03:00+5e34920 0.0 102563
06:00+6ene37915 0.0 1025184
09:00+11e567030 0.0 1024662
12:00+14ene4558100 0.0 10221501
15:00+13ene3565100 0.4 10201206
18:00+12ene567610 0.2 1018658
21:00+9e4119384 0.3 1018248
13 may, thu
thu1300:00+9e5139213 0.8 1017420
03:00+9ese71492100 1.4 1016826
06:00+9se5129536 0.2 1016553
09:00+12sse7107992 0.2 10161108
12:00+11sse4887100 1.9 1016500
15:00+10sse478911 4.8 1015490
18:00+14ssw46719 0.1 1014566
21:00+9sse2284100 0.1 101613
14 may, fri
fri1400:00+9se3490100 0.0 101663
03:00+8ese3694100 0.0 1016101
06:00+10ese4109364 0.0 1016226
09:00+15ese61085100 0.5 1014474
12:00+20se797373 0.2 10131069
15:00+21sse7117532 2.4 10121219
18:00+20sse61179100 2.8 1010375
21:00+16s51593100 6.4 1011283
15 may, sat
sat1500:00+15sse4793100 1.2 1010134
03:00+15se61294100 3.1 1010320
06:00+14se3695100 0.0 1009147
09:00+17sse5687100 0.4 1010510
12:00+21ssw47695 0.9 10091107
15:00+20ssw686944 2.4 10101267
18:00+18sw478076 1.1 1010708
21:00+14wsw4109287 1.6 1011268
16 may, sun
sun1600:00+12wsw38955 0.0 1013167
03:00+10wsw33930 0.0 101443
06:00+10ssw23900 0.0 101586
09:00+15sw357624 0.0 1016473
12:00+19sw34644 0.0 10161219
15:00+20w235845 0.0 10161386
18:00+20e0068100 0.0 1015433
21:00+15ene2279100 0.0 101611